sat.trackr.live / text

‹ back to catalog

STARLINK-11110 [DTC]

NORAD 59762 · 2024-091K

PAYLOAD ACTIVE UNKNOWN

§ Identity

Operator
Country
US
Launch date
2024-05-14
Launch site
AFWTR
Launch vehicle
Mass (kg)
RCS (m²)

Purposes: comms

External: N2YO · Heavens-Above · Gunter

§ Orbital elements

Epoch: 2026-09-21T09:29:44.237760Z

Period
91.74 min
Inclination
53.1594°
Eccentricity
0.0000786
Mean motion
15.69714155 rev/d
Perigee alt
359.2 km
Apogee alt
360.2 km
Semi-major
6,737.9 km
B*
1.5413e-5
RAAN
321.3226°
Arg perigee
80.8414°
Mean anomaly
279.2693°
Rev number
13,625

§ Raw data

STARLINK-11110 [DTC]1 59762U 24091K   26264.39565090  .00001280  00000+0  15413-4 0  99902 59762  53.1594 321.3226 0000786  80.8414 279.2693 15.69714155136252

JSON: /api/v1/satellites/59762 · /tle

For live sub-satellite position, see the globe view (requires WebGL).

§ Visibility from observer

Set your observer location to see the next 7 days of passes ≥ 10°. The values pass through the URL so the page stays shareable.

No JS? Fill the form by hand. The geolocation button needs JavaScript.